User: anonymous   Login
Location: Cheyres
(46.8153°N, 6.7877°E)
Time: 19:12:58
(UTC+00:00)
Language:

LEMUR 2 SPECIAL K - Orbit

View from above orbital plane
View from above orbital plane
View from above satellite
View from above satellite

Ground track
Ground track

The orbit data is extracted from the following two-line orbital elements,

1 48273U 21034F   21341.16828700  .00001257  00000-0  14942-3 0  9995
2 48273  97.7714  51.9541 0003124   7.2354 352.8906 14.86122150 32971
Epoch (UTC): 07 December 2021 04:02:19
Eccentricity: 0.0003124
inclination: 97.7714°
perigee height: 608 km
apogee height: 612 km
right ascension of ascending node: 51.9541°
argument of perigee: 7.2354°
revolutions per day: 14.86122150
mean anomaly at epoch: 352.8906°
orbit number at epoch: 3297

The dashed part of the orbit path shows where the satellite is in the earth's shadow,  

DLR